Overview Statistics Trail Chart Weather Telemetry Raw packets
 

This is the latest recevied weather packets stored in our database for station/object DF1GD-10. If no packets are shown the sender has not sent any weather packets the latest 10 day(s).

<< 23 24 25 26 27 28 29 >>
Time Temp. Humidity Pressure Rain* Wind** Luminosity Snow
1788145649 15° C 79% 1015.8 hPa - - - -
1788144749 15° C 80% 1015.7 hPa - - - -
1788143849 15° C 79% 1015.5 hPa - - - -
1788142949 15.56° C 80% 1015.5 hPa - - - -
1788142049 15.56° C 81% 1015.3 hPa - - - -
1788141149 15.56° C 81% 1015.2 hPa - - - -
1788140248 15.56° C 80% 1014.9 hPa - - - -
1788139348 15.56° C 80% 1014.9 hPa - - - -
1788138448 15.56° C 79% 1014.9 hPa - - - -
1788137548 15.56° C 81% 1014.8 hPa - - - -
1788136648 15.56° C 79% 1014.6 hPa - - - -
1788135748 15.56° C 78% 1014.7 hPa - - - -
1788134848 16.11° C 74% 1014.9 hPa - - - -
1788133947 16.11° C 74% 1015.3 hPa - - - -
1788133047 16.11° C 73% 1014.9 hPa - - - -
1788132147 16.67° C 70% 1014.2 hPa - - - -
1788131247 16.67° C 65% 1013.8 hPa - - - -
1788130347 16.67° C 67% 1013.6 hPa - - - -
1788129447 17.22° C 65% 1014 hPa - - - -
1788128546 17.22° C 60% 1013.6 hPa - - - -
1788127646 17.22° C 57% 1012.6 hPa - - - -
1788126746 17.22° C 56% 1012.7 hPa - - - -
1788125846 17.22° C 57% 1012.6 hPa - - - -
1788124946 17.78° C 56% 1012.6 hPa - - - -
1788124048 17.78° C 56% 1012.6 hPa - - - -

* Rain since midnight (hover to see other rain measurements)
** Current wind speed in m/s (hover to see current wind gust speed)